FENGYUN 1C DEB, 30448

Orbit data source: Space-Track

FENGYUN 1C DEB, 30448 is space debris in SSO originally from a launch on Mon, 10 May 1999 UTC launched from the Taiyaun Space Center, China (TSC). Fengyun 1C debris stems from the Chinese weather satellite Fengyun-1C, which was intentionally destroyed by a Chinese anti-satellite missile in 2007. This event dramatically increased the amount of space debris, with thousands of trackable fragments posing hazards to satellites and human spaceflight. The Fengyun 1C debris cloud has become a focal point in discussions about space sustainability and the need for international regulations to prevent the creation of new debris.

Loading next visibility...
Identifier
30448, 1999-025AFK
Orbit
SSO
Country
Flag of CNCN / PRC
Related business
Manufacturer
Unknown
Mission
Spacecraft
Bus & Motor
Unknown
Mass
Unknown
Launch date (UTC)
1999-05-10 (27 years ago)
Launch vehicle
Unknown
Launch site
Taiyaun Space Center, China (TSC)
Object type
Payload
Rocket body
Debris
Shape & HBR
Unknown shape, 0.1 m
Radar Cross Section
Medium (>0.1 m² and <1 m²)

Expand to show TLE details & history
Last TLE update: 1 day ago

TLE from 1 day ago
0 FENGYUN 1C DEB
1 30448U 99025AFK 26171.22277655  .00003320  00000-0  11295-2 0  9995
2 30448  98.8295 272.4324 0019570 168.8624 221.3007 14.37152464   599
Epoch: 2026-06-20T05:20Z
TLE epoch observation values (Epoch: 2026-06-20T05:20:47.893Z)
Latitude
29.67464°
Longitude
-81.25849°
Altitude
782.153 km
Speed
7.46 km/s
True Right ascension
17h 49m 31s
True Declination
29° 31' 39"
Sunlit
Object was in full shadow at epoch
Visualization orbit readout
Latitude
Unknown
Longitude
Unknown
Altitude
Unknown
Speed
Unknown
Apparent Right ascension
Unknown
Apparent Declination
Unknown
Sunlit
N/A
Visualization observer readout
Local Sidereal Time
22:19:33
Azimuth
Unknown
Elevation
Unknown
Doppler factor
Unknown
Orbital elements
Apogee altitude
779.043 km
Perigee altitude
751.085 km
Semi-major axis
7,143.201 km
Eccentricity
0.00196
Inclination
98.8295°
RAAN
272.4324°
Arg. of periapsis
168.8624°
True anomaly
221.15296°
Mean anomaly
221.3007°
Eccentric anomaly
221.2268°
Mean motion
3.59504 °/min
Orbital period
100.14 mins
BSTAR
0.0011295
Loading maneuver chart data...
Computing Atmospheric mass density...

Documentation

Showing up to 5 results
|